Location: Palmerston North
(40.3500°S, 175.6170°E)
Time: 20:56:16
(UTC+12:00)

ISS - Visible Passes

Search period start: 23 September 2023 00:00
Search period end: 03 October 2023 01:00
Orbit: 414 x 422 km, 51.6° (Epoch: 23 September)

Date Brightness Start Highest point End Pass type
(mag) Time Alt. Az. Time Alt. Az. Time Alt. Az.
23 Sep -0.9 03:38:25 16° E 03:38:25 16° E 03:39:43 10° E visible
23 Sep -3.2 05:11:22 18° W 05:13:39 47° SSW 05:17:00 10° SE visible
24 Sep -3.9 05:25:28 75° WSW 05:25:39 79° SW 05:29:06 10° SE visible
25 Sep -1.4 04:39:28 25° ESE 04:39:28 25° ESE 04:41:06 10° ESE visible
25 Sep -2.1 06:12:24 13° WSW 06:14:42 24° SSW 06:17:34 10° SSE visible
26 Sep -2.6 05:26:18 32° SW 05:26:32 32° SSW 05:29:41 10° SE visible
27 Sep -1.5 04:40:07 24° SSE 04:40:07 24° SSE 04:41:46 10° SE visible
27 Sep -1.4 06:13:38 10° SW 06:15:49 16° SSW 06:17:59 10° SSE visible
28 Sep -1.7 05:26:46 18° SW 05:27:29 19° SSW 05:30:01 10° SSE visible
29 Sep -1.3 04:40:27 19° S 04:40:27 19° S 04:42:04 10° SSE visible
29 Sep -1.1 06:15:15 10° SSW 06:16:54 13° S 06:18:34 10° SSE visible
30 Sep -1.2 05:27:00 11° SW 05:28:28 14° S 05:30:20 10° SSE visible
01 Oct -1.1 04:40:34 15° S 04:40:34 15° S 04:42:14 10° SSE visible
01 Oct -1.0 06:16:06 10° SSW 06:17:54 13° S 06:19:42 10° SE visible
02 Oct -0.2 03:54:07 10° SSE 03:54:07 10° SSE 03:54:10 10° SSE visible
02 Oct -1.0 05:27:47 10° SSW 05:29:25 13° S 05:31:02 10° SSE visible
